When you browse on this site, cookies collect data to enhance your experience and personalize the content and advertising you see.
Visit our Privacy Policy to learn more. By continuing to use the site, you agree to this use of cookies and data.
  • In Latvia
  • List of Countries
  • For 7 days
  • Water Temperature
  • Weather Map
  • Weather Widgets
  • user-avatar
    Login

    Hourly Weather Mokryy Kerchik

    Today, 26 August, Monday

    Time Temperature Precipitation Wind Pressure Humidity
    00:00 +26°C° 0 mm 5 mps 762 mmHg 37%
    01:00 +25°C° 0 mm 5 mps 762 mmHg 38%
    02:00 +25°C° 0 mm 5 mps 762 mmHg 39%
    03:00 +25°C° 0 mm 3 mps 763 mmHg 39%
    04:00 +23°C° 0 mm 4 mps 763 mmHg 43%
    05:00 +23°C° 0 mm 4 mps 763 mmHg 47%
    06:00 +22°C° 0 mm 4 mps 763 mmHg 52%
    07:00 +23°C° 0 mm 5 mps 763 mmHg 49%
    08:00 +25°C° 0 mm 5 mps 764 mmHg 47%
    09:00 +27°C° 0 mm 5 mps 764 mmHg 44%
    10:00 +28°C° 0 mm 5 mps 764 mmHg 40%
    11:00 +30°C° 0 mm 5 mps 764 mmHg 36%
    12:00 +32°C° 0 mm 5 mps 764 mmHg 31%
    13:00 +33°C° 0 mm 5 mps 763 mmHg 30%
    14:00 +33°C° 0 mm 5 mps 763 mmHg 29%
    15:00 +33°C° 0 mm 5 mps 763 mmHg 28%
    16:00 +33°C° 0 mm 5 mps 763 mmHg 30%
    17:00 +32°C° 0 mm 5 mps 763 mmHg 31%
    18:00 +30°C° 0 mm 5 mps 763 mmHg 33%
    19:00 +28°C° 0 mm 5 mps 763 mmHg 35%
    20:00 +26°C° 0 mm 4 mps 763 mmHg 37%
    21:00 +25°C° 0 mm 4 mps 763 mmHg 40%
    22:00 +23°C° 0 mm 4 mps 763 mmHg 40%
    23:00 +22°C° 0 mm 4 mps 763 mmHg 41%

    Tomorrow, 27 August, Tuesday

    Time Temperature Precipitation Wind Pressure Humidity
    00:00 +21°C° 0 mm 4 mps 763 mmHg 42%
    01:00 +21°C° 0 mm 3 mps 762 mmHg 42%
    02:00 +20°C° 0 mm 3 mps 762 mmHg 43%
    03:00 +20°C° 0 mm 3 mps 762 mmHg 43%
    04:00 +20°C° 0 mm 3 mps 762 mmHg 45%
    05:00 +19°C° 0 mm 3 mps 762 mmHg 47%
    06:00 +19°C° 0 mm 3 mps 762 mmHg 48%
    07:00 +21°C° 0 mm 4 mps 762 mmHg 44%
    08:00 +23°C° 0 mm 4 mps 761 mmHg 39%
    09:00 +27°C° 0 mm 4 mps 761 mmHg 34%
    10:00 +28°C° 0 mm 4 mps 761 mmHg 32%
    11:00 +29°C° 0 mm 4 mps 761 mmHg 29%
    12:00 +32°C° 0 mm 4 mps 761 mmHg 27%
    13:00 +32°C° 0 mm 4 mps 760 mmHg 26%
    14:00 +32°C° 0 mm 4 mps 760 mmHg 25%
    15:00 +33°C° 0 mm 4 mps 760 mmHg 24%
    16:00 +32°C° 0 mm 5 mps 759 mmHg 25%
    17:00 +29°C° 0 mm 5 mps 759 mmHg 26%
    18:00 +28°C° 0 mm 5 mps 759 mmHg 27%
    19:00 +26°C° 0 mm 5 mps 759 mmHg 32%
    20:00 +23°C° 0 mm 4 mps 760 mmHg 37%
    21:00 +22°C° 0 mm 4 mps 760 mmHg 42%
    22:00 +21°C° 0 mm 3 mps 760 mmHg 44%
    23:00 +20°C° 0 mm 3 mps 760 mmHg 46%

    Day after tomorrow, 28 August, Wednesday

    Time Temperature Precipitation Wind Pressure Humidity
    00:00 +20°C° 0 mm 3 mps 760 mmHg 49%
    01:00 +19°C° 0 mm 3 mps 760 mmHg 53%
    02:00 +19°C° 0 mm 3 mps 760 mmHg 57%
    03:00 +19°C° 0 mm 3 mps 760 mmHg 61%
    04:00 +18°C° 0 mm 3 mps 760 mmHg 66%
    05:00 +18°C° 0 mm 3 mps 760 mmHg 70%
    06:00 +18°C° 0 mm 3 mps 760 mmHg 75%
    07:00 +20°C° 0 mm 3 mps 760 mmHg 68%
    08:00 +22°C° 0 mm 4 mps 761 mmHg 60%
    09:00 +25°C° 0 mm 4 mps 761 mmHg 53%
    10:00 +26°C° 0 mm 5 mps 761 mmHg 47%
    11:00 +27°C° 0 mm 5 mps 760 mmHg 41%
    12:00 +28°C° 0 mm 5 mps 760 mmHg 35%
    13:00 +28°C° 0 mm 5 mps 760 mmHg 33%
    14:00 +28°C° 0 mm 5 mps 760 mmHg 32%
    15:00 +29°C° 0 mm 6 mps 760 mmHg 31%
    16:00 +28°C° 0 mm 6 mps 760 mmHg 32%
    17:00 +27°C° 0 mm 6 mps 760 mmHg 33%
    18:00 +26°C° 0 mm 6 mps 760 mmHg 34%
    19:00 +23°C° 0 mm 6 mps 761 mmHg 38%
    20:00 +21°C° 0 mm 5 mps 761 mmHg 42%
    21:00 +19°C° 0 mm 5 mps 762 mmHg 46%
    22:00 +17°C° 0 mm 5 mps 762 mmHg 45%
    23:00 +16°C° 0 mm 5 mps 762 mmHg 45%

    29 August, Thursday

    Time Temperature Precipitation Wind Pressure Humidity
    00:00 +15°C° 0 mm 5 mps 762 mmHg 44%
    01:00 +14°C° 0 mm 4 mps 763 mmHg 47%
    02:00 +13°C° 0 mm 4 mps 763 mmHg 50%
    03:00 +12°C° 0 mm 4 mps 763 mmHg 54%
    04:00 +12°C° 0 mm 4 mps 764 mmHg 56%
    05:00 +11°C° 0 mm 4 mps 764 mmHg 59%
    06:00 +10°C° 0 mm 4 mps 764 mmHg 62%
    07:00 +12°C° 0 mm 4 mps 764 mmHg 57%
    08:00 +14°C° 0 mm 5 mps 764 mmHg 51%
    09:00 +15°C° 0 mm 5 mps 764 mmHg 46%
    10:00 +17°C° 0 mm 5 mps 764 mmHg 41%
    11:00 +19°C° 0 mm 6 mps 764 mmHg 35%
    12:00 +21°C° 0 mm 6 mps 764 mmHg 29%
    13:00 +22°C° 0 mm 6 mps 763 mmHg 28%
    14:00 +22°C° 0 mm 5 mps 763 mmHg 26%
    15:00 +23°C° 0 mm 5 mps 763 mmHg 25%
    16:00 +22°C° 0 mm 5 mps 763 mmHg 26%
    17:00 +22°C° 0 mm 5 mps 762 mmHg 27%
    18:00 +21°C° 0 mm 5 mps 762 mmHg 28%
    19:00 +20°C° 0 mm 5 mps 763 mmHg 31%
    20:00 +18°C° 0 mm 4 mps 763 mmHg 34%
    21:00 +15°C° 0 mm 4 mps 763 mmHg 38%
    22:00 +15°C° 0 mm 4 mps 763 mmHg 40%
    23:00 +14°C° 0 mm 4 mps 763 mmHg 42%

    30 August, Friday

    Time Temperature Precipitation Wind Pressure Humidity
    00:00 +13°C° 0 mm 4 mps 763 mmHg 44%
    01:00 +13°C° 0 mm 4 mps 762 mmHg 47%
    02:00 +12°C° 0 mm 4 mps 762 mmHg 50%
    03:00 +12°C° 0 mm 4 mps 762 mmHg 53%
    04:00 +11°C° 0 mm 4 mps 762 mmHg 54%
    05:00 +11°C° 0 mm 4 mps 762 mmHg 55%
    06:00 +11°C° 0 mm 4 mps 762 mmHg 57%
    07:00 +13°C° 0 mm 4 mps 762 mmHg 50%
    08:00 +15°C° 0 mm 4 mps 762 mmHg 44%
    09:00 +19°C° 0 mm 4 mps 762 mmHg 38%
    10:00 +20°C° 0 mm 5 mps 762 mmHg 33%
    11:00 +21°C° 0 mm 5 mps 762 mmHg 28%
    12:00 +23°C° 0 mm 5 mps 762 mmHg 23%
    13:00 +25°C° 0 mm 5 mps 761 mmHg 22%
    14:00 +25°C° 0 mm 5 mps 761 mmHg 20%
    15:00 +26°C° 0 mm 5 mps 760 mmHg 19%
    16:00 +25°C° 0 mm 5 mps 760 mmHg 22%
    17:00 +25°C° 0 mm 4 mps 760 mmHg 25%
    18:00 +23°C° 0 mm 4 mps 760 mmHg 28%
    19:00 +22°C° 0 mm 3 mps 760 mmHg 34%
    20:00 +20°C° 0 mm 2 mps 760 mmHg 39%
    21:00 +18°C° 0 mm 2 mps 760 mmHg 45%
    22:00 +18°C° 0 mm 2 mps 760 mmHg 51%
    23:00 +18°C° 0 mm 3 mps 761 mmHg 56%

    31 August, Saturday

    Time Temperature Precipitation Wind Pressure Humidity
    00:00 +17°C° 0 mm 3 mps 761 mmHg 62%
    01:00 +17°C° 0 mm 4 mps 761 mmHg 67%
    02:00 +15°C° 0 mm 4 mps 761 mmHg 72%
    03:00 +14°C° 0 mm 4 mps 761 mmHg 78%
    04:00 +13°C° 0 mm 4 mps 761 mmHg 80%
    05:00 +12°C° 0 mm 4 mps 762 mmHg 83%
    06:00 +11°C° 0 mm 4 mps 762 mmHg 86%
    07:00 +12°C° 0 mm 5 mps 762 mmHg 75%
    08:00 +14°C° 0 mm 5 mps 763 mmHg 64%
    09:00 +15°C° 0 mm 5 mps 763 mmHg 54%
    10:00 +17°C° 0 mm 5 mps 763 mmHg 44%
    11:00 +20°C° 0 mm 5 mps 763 mmHg 34%
    12:00 +22°C° 0 mm 5 mps 763 mmHg 24%
    13:00 +22°C° 0 mm 5 mps 762 mmHg 22%
    14:00 +23°C° 0 mm 4 mps 762 mmHg 20%
    15:00 +25°C° 0 mm 4 mps 762 mmHg 18%
    16:00 +23°C° 0 mm 4 mps 762 mmHg 20%
    17:00 +23°C° 0 mm 4 mps 762 mmHg 21%
    18:00 +22°C° 0 mm 4 mps 762 mmHg 22%
    19:00 +20°C° 0 mm 3 mps 762 mmHg 26%
    20:00 +18°C° 0 mm 3 mps 762 mmHg 29%
    21:00 +16°C° 0 mm 2 mps 763 mmHg 33%
    22:00 +15°C° 0 mm 2 mps 763 mmHg 35%
    23:00 +15°C° 0 mm 2 mps 763 mmHg 36%
    Show more